{"data":{"norad_id":63269,"epoch":"2026-05-24T23:56:18.277728Z","epoch_age_seconds":68496,"freshness":"FRESH","line1":"1 63269U 25053E   26144.99743377  .00158139  00000+0  12110-2 0  9990","line2":"2 63269  43.0018  12.0074 0002360 278.1565  81.9035 15.70870858 69676","mean_motion":15.70870858,"eccentricity":0.000236,"inclination_deg":43.0018,"raan_deg":12.0074,"arg_perigee_deg":278.1565,"mean_anomaly_deg":81.9035,"bstar":0.001211,"rev_number":6967,"period_min":91.668897711514,"perigee_km":354.81751272103,"apogee_km":357.99621742534,"semimajor_km":6734.5438650732,"source":"CELESTRAK","updated_at":"2026-05-25T13:38:19.924579Z"}}